Regional Weather Roundup
Issued by NWS Newport/Morehead, NC

Current Version | Previous Version | Graphics & Text | Print | Product List | Glossary Off
Versions: 1 2 3 4 5 6 7 8 9 10 11 12 13 14 15 16 17 18 19 20 21 22 23 24 25 26 27 28 29 30 31 32 33 34 35 36 37 38 39 40 41 42 43 44 45 46 47 48 49 50

000
ASUS42 KMHX 300013
RWRMHX
WEATHER ROUNDUP FOR EASTERN NORTH CAROLINA
NATIONAL WEATHER SERVICE NEWPORT/MOREHEAD CITY NC
800 PM EDT FRI JUL 29 2016

NOTE: "FAIR" INDICATES FEW OR NO CLOUDS BELOW 12,000 FEET
WITH NO SIGNIFICANT WEATHER AND/OR OBSTRUCTIONS TO VISIBILITY

NCZ015>017-031-032-045>047-102-103-300100-
NORTH COAST

CITY           SKY/WX    TMP DP  RH WIND       PRES   REMARKS
EDENTON        CLEAR     86  72  64 N3        29.91S
ELIZABETH CITY MOCLDY    83  75  77 NE10      29.90R
KITTY HAWK     PTCLDY    83  80  89 NE5       29.89R
MANTEO         HAZE      84  78  83 E6        29.90R VSB 1/2

$$

NCZ045>047-081-094-103-104-300100-
CENTRAL COAST

CITY           SKY/WX    TMP DP  RH WIND       PRES   REMARKS
FRISCO         MOCLDY    83  78  85 SW9       29.90R

$$

NCZ095-097-098-100-101-300100-
SOUTHERN COAST

CITY           SKY/WX    TMP DP  RH WIND       PRES   REMARKS
BEAUFORT       PTCLDY    85  79  82 SW12      29.91R
CEDAR ISLAND   NOT AVBL
JACKSONVILLE   CLEAR     89  70  53 NW7       29.90R
PINEY ISLAND   NOT AVBL
WILMINGTON     CLEAR     88  76  67 SW7       29.91R


$$

NCZ011>013-027>030-043-044-078>080-089-090>093-098-300100-
COASTAL PLAIN

CITY           SKY/WX    TMP DP  RH WIND       PRES   REMARKS
AHOSKIE        CLEAR     80  74  82 CALM      29.92R
CLINTON        CLEAR     91  72  52 CALM      29.91S
ELIZABETHTOWN  CLEAR     91  73  54 CALM      29.91S
GOLDSBORO      CLEAR     90  69  48 NW5       29.90S
GREENVILLE     CLEAR     88  75  66 CALM      29.93S
HAVELOCK       CLEAR     86  77  74 SW7       29.91R
KENANSVILLE    NOT AVBL
KINSTON        CLEAR     88  72  58 CALM      29.92R
NEW BERN       CLEAR     88  74  63 CALM      29.91R
RICHLANDS      CLEAR     88  74  63 CALM      29.91R
ROCKY MOUNT    CLEAR     87  72  60 NW3       29.92R
WASHINGTON     PTCLDY    84  75  75 CALM      29.91R
WHITEVILLE     CLEAR     88  76  67 CALM      29.90F

$$

AMZ130-135-150-152-154-156-158-170-250-252-270-ANZ085-086-088-633-658-670-300100-
MARINE OBSERVATIONS

STATION/POSITION TIME  TEMP    WIND        PRES    WAVE   SWELL
                       AIR SEA DIR/SP/G            HT/PER HT/PER
                 (UTC) (F)     (DEG/KT/KT) (MB)    (FT/S) (FT/S)
CHESAPEAKE LIGHT NOT AVBL
64 E VA BEACH    2350   82 83  350/  8/ 10 1012.3    3/ 6   2/ 6
DUCK             2318      71                N/A
2 E DUCK         2311      79                N/A     1/14
OREGON INLET     2318      84                N/A
13E OREGON INLT  0000      79                N/A     3/ 4
HATTERAS CG      2318      84                N/A
DIAMOND BUOY     2350   86 86  230/ 19/ 23 1012.1    4/ 5   2/14
CAPE LOOKOUT     0000   85     220/ 10/ 13 1012.6
BEAUFORT LAB     2318      83                N/A
30 SE NEW RVR IN 2308   86 85  230/ 17/ 23 1012.5
30 SE NEW RVR IN 2325      85                N/A     5/ 5
27 SE WRIGHTSVLE 2308   85 84  220/ 16/ 21 1013.0
5 SE WRIGHTSVLE  2308   84 80  220/ 14/ 19 1013.5
225 S CAPE HAT   2350   85 85  230/ 10/ 10 1015.6    4/ 7   3/ 7
41 SE CHARLESTON 2350   86 86  210/ 17/ 19 1013.1    3/ 4   2/ 8

$$



USA.gov is the U.S. government's official web portal to all federal, state and local government web resources and services.